Flag for Netherlands Weather past 2 weeks in Apeldoorn, Netherlands

Now
52 °F

Passing clouds.


Feels Like: 50 °F
Forecast: 62 / 85 °F
Wind: 6 mph from South

Location: Deelen

Current Time: Aug 5, 2015 at 6:57:25 AM

Latest Report: Aug 5, 2015 at 5:55 AM


Visibility: N/A

Pressure: 30.07 "Hg

Humidity: 88%

Dew point: 48 °F

Location of ApeldoornLocation

Historic Weather in Apeldoorn — Graph

°F

Apeldoorn temperature yesterday

Maximum temperature yesterday: 70 °F (at 5:55 PM)
Minimum temperature yesterday: 54 °F (at 11:25 PM)
Average temperature yesterday: 64 °F

Past Weeks' High & Low Weather Summary

 TemperatureHumidityPressure
High90 °F (Aug 3, 3:25 PM)100% (Jul 23, 5:55 AM)30.15 "Hg (Jul 23, 5:55 AM)
Low39 °F (Jul 31, 6:55 AM)29% (Aug 3, 3:55 PM)29.45 "Hg (Jul 25, 6:25 AM)
Average62 °F75%29.88 "Hg
* Reported Jul 21 4:25 AM — Aug 5 4:55 AM, Apeldoorn, Weather by CustomWeather, © 2015

Note: Actual official high and low records may vary slightly from our data, if they occured in-between our weather recording intervals... More about our weather records

Advertising

Apeldoorn weather history for previous 24 hours

 ConditionsComfort  
Time TempWeatherWind HumidityBarometerVisibility
4:55 AM
Wed, Aug 5
50 °FPassing clouds.3 mph94%30.04 "HgN/A
4:25 AM50 °FPassing clouds.1 mph94%30.04 "HgN/A
3:55 AM50 °FClear.2 mph94%30.04 "HgN/A
3:25 AM52 °FClear.3 mph94%30.07 "HgN/A
2:55 AM52 °FPassing clouds.2 mph94%30.04 "HgN/A
2:25 AM54 °FClear.2 mph94%30.04 "HgN/A
1:55 AM54 °FPassing clouds.3 mph88%30.04 "HgN/A
1:25 AM52 °FClear.3 mph94%30.04 "HgN/A
12:55 AM54 °FPassing clouds.2 mph88%30.04 "HgN/A
12:25 AM54 °FPassing clouds.1 mph88%30.04 "HgN/A
11:55 PM
Tue, Aug 4
54 °FClear.2 mph88%30.04 "HgN/A
11:25 PM54 °FPassing clouds.1 mph88%30.04 "HgN/A
10:55 PM55 °FPassing clouds.2 mph88%30.04 "HgN/A
10:25 PM55 °FClear.2 mph88%30.04 "HgN/A
9:55 PM59 °FSunny.2 mph72%30.04 "HgN/A
9:25 PM61 °FPassing clouds.3 mph72%30.01 "HgN/A
8:55 PM63 °FSunny.6 mph64%30.01 "HgN/A
8:25 PM64 °FSunny.9 mph60%30.01 "HgN/A
7:55 PM66 °FPassing clouds.13 mph56%30.01 "HgN/A
7:25 PM68 °FPassing clouds.10 mph56%29.98 "HgN/A
6:55 PM68 °FScattered clouds.10 mph56%29.98 "HgN/A
6:25 PM68 °FPartly sunny.8 mph53%29.98 "HgN/A
5:55 PM70 °FPassing clouds.9 mph57%29.98 "HgN/A
5:25 PM68 °FBroken clouds.10 mph69%29.98 "HgN/A
4:55 PM66 °FBroken clouds.8 mph78%29.98 "HgN/A
4:25 PM64 °FBroken clouds.8 mph94%29.98 "HgN/A
3:55 PM63 °FMostly cloudy.6 mph94%29.95 "HgN/A
3:25 PM63 °FOvercast.7 mph94%29.95 "HgN/A
2:55 PM63 °FBroken clouds.10 mph94%29.95 "HgN/A
2:25 PM63 °FBroken clouds.7 mph94%29.92 "HgN/A
1:55 PM63 °FBroken clouds.3 mph94%29.92 "HgN/A
1:25 PM63 °FMore clouds than sun.7 mph94%29.92 "HgN/A
12:55 PM64 °FMostly cloudy.9 mph94%29.89 "HgN/A
12:25 PM66 °FBroken clouds.8 mph94%29.89 "HgN/A
11:55 AM66 °FBroken clouds.6 mph94%29.89 "HgN/A
11:25 AM66 °FBroken clouds.6 mph94%29.89 "HgN/A
10:55 AM64 °FBroken clouds.2 mph100%29.86 "HgN/A
10:25 AM64 °FBroken clouds.5 mph100%29.86 "HgN/A
9:55 AM64 °FBroken clouds.1 mph94%29.86 "HgN/A
9:25 AM64 °FBroken clouds.2 mph94%29.86 "HgN/A
8:55 AM64 °FCloudy.5 mph94%29.83 "HgN/A
8:25 AM64 °FOvercast.3 mph94%29.80 "HgN/A
7:55 AM64 °FMore clouds than sun.7 mph94%29.80 "HgN/A
7:25 AM63 °FPartly sunny.9 mph100%29.83 "HgN/A
6:55 AM64 °FOvercast.1 mph94%29.86 "HgN/A
6:25 AM64 °FMostly cloudy.5 mph94%29.83 "HgN/A
Weather by CustomWeather, © 2015

See weather overviewHow to use our weather pages